sat.trackr.live / text

‹ back to catalog

ONEWEB-0266

NORAD 48984 · 2021-060T

PAYLOAD ACTIVE UNKNOWN

§ Identity

Operator
Country
UK
Launch date
2021-07-01
Launch site
VOSTO
Launch vehicle
Mass (kg)
RCS (m²)

Purposes: comms

External: N2YO · Heavens-Above · Gunter

§ Orbital elements

Epoch: 2026-09-09T22:36:53.207136Z

Period
109.37 min
Inclination
87.9140°
Eccentricity
0.0001996
Mean motion
13.16599342 rev/d
Perigee alt
1,196.2 km
Apogee alt
1,199.2 km
Semi-major
7,575.9 km
B*
1.6383e-4
RAAN
211.9449°
Arg perigee
79.6499°
Mean anomaly
280.4857°
Rev number
25,073

§ Raw data

ONEWEB-02661 48984U 21060T   26252.94228249  .00000075  00000+0  16383-3 0  99942 48984  87.9140 211.9449 0001996  79.6499 280.4857 13.16599342250737

JSON: /api/v1/satellites/48984 · /tle

For live sub-satellite position, see the globe view (requires WebGL).

§ Visibility from observer

Set your observer location to see the next 7 days of passes ≥ 10°. The values pass through the URL so the page stays shareable.

No JS? Fill the form by hand. The geolocation button needs JavaScript.